Home   Weather   Blackpool   Past weeks

Flag for United Kingdom Past Weather in Blackpool, England, United Kingdom — Yesterday and Last 2 Weeks

Now
50 °F

Sunny.


Feels Like: 43 °F
Forecast: 51 / 57 °F
Wind: 23 mph from Southeast

Location: Blackpool Airport

Current Time: Apr 30, 2017 at 6:43:23 am

Latest Report: Apr 30, 2017 at 6:20 am


Visibility: 10 mi

Pressure: 29.65 "Hg

Humidity: 67%

Dew Point: 39 °F

Location of BlackpoolLocation

Past Weather in Blackpool — Graph

°F

Blackpool Temperature Yesterday

Maximum temperature yesterday: 57 °F (at 2:50 pm)
Minimum temperature yesterday: 45 °F (at 6:20 am)
Average temperature yesterday: 53 °F

High & Low Weather Summary for the Past Weeks

 TemperatureHumidityPressure
High57 °F (Apr 29, 2:50 pm)94% (Apr 16, 12:20 pm)30.60 "Hg (Apr 16, 12:20 pm)
Low36 °F (Apr 25, 6:20 am)46% (Apr 24, 4:50 pm)29.80 "Hg (Apr 29, 7:50 pm)
Average49 °F72%30.22 "Hg
* Reported Apr 15 9:20 am — Apr 29 8:50 pm, Blackpool, Weather by CustomWeather, © 2017

Note: Actual official high and low records may vary slightly from our data, if they occured in-between our weather recording intervals... More about our weather records

Advertising

Blackpool Weather History for the Previous 24 Hours

Scroll right to see more
 ConditionsComfort  
Time TempWeatherWind HumidityBarometerVisibility
8:50 pm
Sat, Apr 29
52 °FPassing clouds.14 mph67%29.80 "HgN/A
8:20 pm54 °FPassing clouds.12 mph58%29.80 "HgN/A
7:50 pm52 °FPassing clouds.10 mph62%29.80 "HgN/A
7:20 pm54 °FScattered clouds.12 mph58%29.83 "HgN/A
6:50 pm54 °FSunny.13 mph54%29.83 "Hg10 mi
6:20 pm54 °FScattered clouds.13 mph54%29.83 "HgN/A
5:50 pm55 °FScattered clouds.15 mph55%29.83 "HgN/A
4:50 pm55 °FSunny.16 mph51%29.86 "Hg10 mi
4:20 pm55 °FPassing clouds.16 mph51%29.86 "HgN/A
3:50 pm57 °FPassing clouds.16 mph48%29.86 "HgN/A
3:20 pm57 °FPassing clouds.15 mph48%29.86 "HgN/A
2:50 pm57 °FPassing clouds.14 mph48%29.89 "HgN/A
1:50 pm55 °FScattered clouds.12 mph55%29.89 "HgN/A
1:20 pm55 °FScattered clouds.12 mph55%29.89 "HgN/A
12:50 pm55 °FScattered clouds.13 mph55%29.89 "HgN/A
12:20 pm55 °FScattered clouds.13 mph55%29.92 "HgN/A
11:50 am55 °FScattered clouds.14 mph55%29.92 "HgN/A
10:50 am54 °FScattered clouds.13 mph58%29.92 "HgN/A
10:20 am52 °FScattered clouds.13 mph67%29.92 "HgN/A
9:50 am50 °FLight rain. Partly sunny.14 mph71%29.95 "HgN/A
9:20 am50 °FPartly sunny.12 mph71%29.95 "HgN/A
8:50 am48 °FPartly sunny.12 mph71%29.95 "HgN/A
8:20 am48 °FPartly sunny.10 mph76%29.95 "HgN/A
7:50 am46 °FPassing clouds.12 mph82%29.95 "HgN/A
7:20 am46 °FPassing clouds.9 mph82%29.95 "HgN/A
6:50 am46 °FPassing clouds.8 mph82%29.95 "HgN/A
6:20 am45 °FPassing clouds.7 mph87%29.95 "HgN/A
Weather by CustomWeather, © 2017

See weather overviewHow to use our weather pages